Regional Weather Roundup
Issued by NWS Austin/San Antonio, TX

Home | Current Version | Previous Version | Text Only | Print | Product List | Glossary On
Versions: 1 2 3 4 5 6 7 8 9 10 11 12 13 14 15 16 17 18 19 20 21 22 23 24 25 26 27 28 29 30 31 32 33 34 35 36 37 38 39 40 41 42 43 44 45 46 47 48 49 50
555
ASUS44 KEWX 260211
RWREWX
SOUTH TEXAS REGIONAL WEATHER ROUNDUP
NATIONAL WEATHER SERVICE AUSTIN/SAN ANTONIO TX
900 PM CDT THU MAY 25 2017

NOTE: "FAIR" INDICATED FEW OR NO CLOUDS BELOW 12,000 FEET WITH NO
SIGNIFICANT WEATHER AND/OR OBSTRUCTIONS TO VISIBILITY.

* - THESE STATIONS ARE NOT NWS OR FAA STATIONS...AND ARE NOT SUBJECT
    TO NWS AND FAA QUALITY CONTROL.

TXZ171-172-183>190-260300-
TEXAS HILL COUNTRY AND EDWARDS PLATEAU

CITY           SKY/WX    TMP DP  RH WIND       PRES   REMARKS
JUNCTION       CLEAR     86  62  44 S6        29.69R
*LLANO         CLEAR     86  63  45 S7        29.70R
BURNET         CLEAR     84  65  52 S9G17     29.71R
*HORSESHOE BAY NOT AVBL
*KERRVILLE     CLEAR     83  66  55 SE14      29.72R
*FREDERICKSBRG CLEAR     83  60  45 S6        29.72R
*ROCKSPRINGS   CLEAR     82  64  54 S8        29.77R
*BOERNE STAGE  CLEAR     81  68  65 S10G16    29.74S
*CASTROVILLE   CLEAR     83  67  58 SE7       29.71R
HONDO          CLEAR     85  70  60 SE13      29.69R
*UVALDE        CLEAR     83  67  58 CALM      29.68R
DEL RIO        CLEAR     88  66  48 SE9       29.63R HX  90
LAUGHLIN AFB   PTCLDY    84  69  60 SE8       29.64R
CARRIZO SPRGS  CLEAR     93  64  38 S12G20    29.62R HX  95
*EAGLE PASS    NOT AVBL
$$

TXZ173-191>194-202-209-217>225-228-260300-
CENTRAL AND SOUTH CENTRAL TEXAS

CITY           SKY/WX    TMP DP  RH WIND       PRES   REMARKS
GEORGETOWN     CLEAR     84  64  51 S14G21    29.69R
AUSTIN/BERGSTM PTCLDY    82  69  64 S14       29.70R
AUSTIN/MABRY   CLEAR     83  67  58 VRB7G18   29.71R
*AUSTIN/EXEC   FAIR      81  68  65 S8G16     29.71R
*LAGO VISTA    CLEAR     83  67  59 S14G20    29.72R
SAN MARCOS     CLEAR     81  68  65 S14       29.73R
NEW BRAUNFELS  CLEAR     81  69  67 S12       29.71R
RANDOLPH AFB   CLEAR     79  71  75 SE14      29.72R
PT SAN ANTONIO CLEAR     83  70  65 SE15G23   29.68S
SAN ANTONIO    PTCLDY    82  69  64 SE16      29.71S
STINSON FIELD  CLEAR     83  70  64 SE14      29.68S
*LA GRANGE     CLEAR     80  69  70 S9        29.73R
*GIDDINGS      CLEAR     79  65  62 S7        29.75R
*GONZALES      CLEAR     79  71  75 S10       29.74R
$$

TXZ163>164-176>182-195>201-210>213-226-227-235-260300-
SOUTHEAST TEXAS

CITY           SKY/WX    TMP DP  RH WIND       PRES   REMARKS
COLLEGE STN    CLEAR     79  58  48 S13       29.73R
*BRYAN         CLEAR     79  57  47 S14G20    29.74R
*CALDWELL      NOT AVBL
*CROCKETT      CLEAR     77  59  53 S9        29.75R
*BRENHAM       CLEAR     80  60  50 S9G16     29.75R
HUNTSVILLE     CLEAR     82  50  32 S10G21    29.72S
CONROE         CLEAR     77  57  50 SE13      29.75S
HOUSTON BUSH   PTCLDY    79  62  56 S15G23    29.77R
HOUSTON HOBBY  PTCLDY    76  65  68 S9        29.78S
*HOUSTON SW AP CLEAR     73  66  78 S6        29.80R
PEARLAND       CLEAR     78  65  63 S8        29.80S
HOUSTON HOOKS  CLEAR     79  63  57 S9G18     29.76R
ELLINGTON FLD  PTCLDY    77  61  57 SE9       29.81S
SUGAR LAND     CLEAR     78  66  66 SE14      29.77R
*HOUSTON EXEC  CLEAR     75  59  57 S10       29.78R
*CLEVELAND MUN CLEAR     74  62  66 S8        29.78S
*WHARTON       CLEAR     74  64  69 SE9       29.78R
*COLUMBUS      FAIR      76  63  63 S12       29.77R
*EAGLE LAKE    CLEAR     76  67  73 S10       29.76R
$$

TXZ214>216-236>238-260300-
THE UPPER TEXAS COAST

CITY           SKY/WX    TMP DP  RH WIND       PRES   REMARKS
*ORANGE        CLEAR     76  65  70 S8        29.85S
PORT ARTHUR    CLEAR     71  63  75 S7        29.82S
GALVESTON      CLEAR     78  67  68 S16       29.81S
ANGLETON       CLEAR     77  67  71 S13       29.79S
*BAY CITY      CLEAR     75  68  77 SE8       29.78S
PALACIOS       CLEAR     76  68  76 SE17G24   29.77S
$$

TXZ229>234-239>247-260300-
TEXAS COASTAL BEND AND RIO GRANDE PLAINS

CITY           SKY/WX    TMP DP  RH WIND       PRES   REMARKS
VICTORIA       CLEAR     77  70  79 S13       29.76R
*BEEVILLE      PTCLDY    78  74  89 SE15      29.74R
ROCKPORT       CLOUDY    79  72  79 S12G24    29.75R
*PORT ARANSAS  CLOUDY    78  73  84 S23G29    29.75S
*PORT LAVACA   CLEAR     76  73  90 SE12      29.77R
*INGLESIDE     MOCLDY    80  74  83 SE15G24   29.75R
CORPUS CHRISTI PTCLDY    79  74  84 SE16      29.75R
CORPUS NAS     MOCLDY    81  75  82 S23G32    29.75R
*ROBSTOWN      PTCLDY    80  74  82 SE16      29.75R
ALICE          CLEAR     79  73  82 SE20G25   29.72R
KINGSVILLE NAS MOCLDY    80  77  90 SE17G28   29.73R
COTULLA        CLEAR     93  64  38 SE14      29.65R HX  94
*FAITH RANCH   CLEAR     91  66  43 SE8       29.64R HX  94
LAREDO         CLEAR     91  72  53 SE16      29.66R HX  98
$$

TXZ248>255-260300-
DEEP SOUTH TEXAS

CITY           SKY/WX    TMP DP  RH WIND       PRES   REMARKS
BROWNSVILLE    MOCLDY    81  75  82 SE15      29.76R
PORT ISABEL    PTCLDY    81  74  79 S18       29.75R
*SOUTH PADRE   NOT AVBL
HARLINGEN      PTCLDY    80  75  84 SE18      29.74R
*HEBBRONVILLE  CLEAR     85  70  59 SE14G20   29.73R
MCALLEN        MOCLDY    84  73  69 SE16G28   29.73R HX  90
*WESLACO       CLEAR     81  73  75 S20       29.73R
FALFURRIAS     CLEAR     84  74  71 SE9G20    29.72R HX  91
EDINBURG       CLOUDY    85  72  64 SE16G26   29.74R HX  91
*ZAPATA        CLEAR     88  72  58 SE13G22   29.67R HX  94
$$

TXZ213>215-236>238-242>244-246-247-251-254-255-260300-
CMAN STATIONS

STATION/POSITION TIME  TEMP    WIND        PRES    WAVE
                       AIR SEA DIR/SP/G            HT/PER
                 (UTC) (F)     (DEG/KT/KT) (MB)    (FT/S)
SABINE PASS      0148   76 81  170/  9/ 12 1011.6
SEA RIM ST PARK  0200   78     170/ 14/ 17 1010.6
NORTH JETTY/GLS  0148          160/ 17/ 19   N/A
EAGLE POINT      0148          190/ 13/ 16   N/A
MORGANS POINT    0148   78 78  160/ 11/ 15 1008.8
MISSION/ARANSAS  0100   79                 1007.0
PORT O`CONNOR    0148   78     150/ 19/ 22 1007.7
PORT ARANSAS     0200   79 80  150/ 25/ 28 1007.4
MALAQUITE BEACH  0148   79 81  140/ 22/ 25 1007.8
BAFFIN BAY       0148   80 80              1007.3
PORT ISABEL      0148   81 82  160/ 18/ 23 1007.7
$$




USA.gov is the U.S. government's official web portal to all federal, state and local government web resources and services.